• In Belarus
  • List of Countries
  • For 7 days
  • Water Temperature
  • Satellite Maps
  • Weather Map
  • Weather Widgets
  • user-avatar
    Login

    Hourly Weather Kandahar

    Today, 23 February, Friday

    Time Temperature Precipitation Wind Pressure Humidity
    00:00 +18°C° 0 mm 2 mps 672 mmHg 23%
    01:00 +18°C° 0 mm 2 mps 672 mmHg 23%
    02:00 +18°C° 0 mm 2 mps 672 mmHg 24%
    03:00 +18°C° 0 mm 2 mps 672 mmHg 24%
    04:00 +18°C° 0 mm 2 mps 672 mmHg 25%
    05:00 +17°C° 0.1 mm 3 mps 672 mmHg 28%
    06:00 +17°C° 0.1 mm 4 mps 672 mmHg 31%
    07:00 +17°C° 0.1 mm 4 mps 672 mmHg 34%
    08:00 +16°C° 0.1 mm 5 mps 672 mmHg 36%
    09:00 +16°C° 0.1 mm 6 mps 672 mmHg 37%
    10:00 +16°C° 0.1 mm 7 mps 672 mmHg 38%
    11:00 +17°C° 0.1 mm 7 mps 672 mmHg 37%
    12:00 +19°C° 0.1 mm 6 mps 672 mmHg 36%
    13:00 +20°C° 0.1 mm 6 mps 671 mmHg 35%
    14:00 +19°C° 0.4 mm 5 mps 671 mmHg 38%
    15:00 +19°C° 0.4 mm 5 mps 671 mmHg 41%
    16:00 +18°C° 0.4 mm 4 mps 670 mmHg 44%
    17:00 +18°C° 0.9 mm 4 mps 670 mmHg 49%
    18:00 +17°C° 0.9 mm 4 mps 670 mmHg 54%
    19:00 +15°C° 0.9 mm 4 mps 670 mmHg 60%
    20:00 +14°C° 0.2 mm 4 mps 670 mmHg 62%
    21:00 +14°C° 0.2 mm 4 mps 671 mmHg 64%
    22:00 +13°C° 0.2 mm 4 mps 671 mmHg 66%
    23:00 +13°C° 0.2 mm 3 mps 671 mmHg 66%

    Tomorrow, 24 February, Saturday

    Time Temperature Precipitation Wind Pressure Humidity
    00:00 +13°C° 0.2 mm 3 mps 671 mmHg 67%
    01:00 +14°C° 0.2 mm 2 mps 671 mmHg 68%
    02:00 +13°C° 0.3 mm 2 mps 671 mmHg 69%
    03:00 +13°C° 0.3 mm 2 mps 671 mmHg 70%
    04:00 +13°C° 0.3 mm 2 mps 671 mmHg 71%
    05:00 +13°C° 0.2 mm 2 mps 671 mmHg 70%
    06:00 +13°C° 0.2 mm 2 mps 672 mmHg 70%
    07:00 +13°C° 0.2 mm 2 mps 672 mmHg 69%
    08:00 +14°C° 0 mm 2 mps 673 mmHg 63%
    09:00 +15°C° 0 mm 2 mps 674 mmHg 57%
    10:00 +17°C° 0 mm 2 mps 674 mmHg 52%
    11:00 +18°C° 0 mm 2 mps 674 mmHg 47%
    12:00 +19°C° 0 mm 2 mps 674 mmHg 42%
    13:00 +20°C° 0 mm 2 mps 674 mmHg 37%
    14:00 +20°C° 0 mm 3 mps 674 mmHg 34%
    15:00 +21°C° 0 mm 3 mps 674 mmHg 32%
    16:00 +21°C° 0 mm 4 mps 674 mmHg 30%
    17:00 +20°C° 0 mm 3 mps 674 mmHg 32%
    18:00 +19°C° 0 mm 2 mps 674 mmHg 35%
    19:00 +19°C° 0 mm 2 mps 675 mmHg 37%
    20:00 +19°C° 0 mm 1 mps 675 mmHg 39%
    21:00 +19°C° 0 mm 1 mps 675 mmHg 40%
    22:00 +18°C° 0 mm 1 mps 675 mmHg 41%
    23:00 +17°C° 0 mm 2 mps 675 mmHg 41%

    Day after tomorrow, 25 February, Sunday

    Time Temperature Precipitation Wind Pressure Humidity
    00:00 +17°C° 0 mm 2 mps 675 mmHg 41%
    01:00 +17°C° 0 mm 2 mps 675 mmHg 41%
    02:00 +16°C° 0 mm 3 mps 675 mmHg 41%
    03:00 +16°C° 0 mm 3 mps 675 mmHg 41%
    04:00 +16°C° 0 mm 3 mps 674 mmHg 42%
    05:00 +16°C° 0 mm 3 mps 675 mmHg 41%
    06:00 +16°C° 0 mm 3 mps 675 mmHg 41%
    07:00 +15°C° 0 mm 4 mps 675 mmHg 40%
    08:00 +17°C° 0 mm 4 mps 676 mmHg 39%
    09:00 +18°C° 0 mm 4 mps 676 mmHg 37%
    10:00 +19°C° 0 mm 4 mps 677 mmHg 36%
    11:00 +19°C° 0.5 mm 4 mps 677 mmHg 43%
    12:00 +18°C° 0.5 mm 3 mps 676 mmHg 50%
    13:00 +18°C° 0.5 mm 3 mps 676 mmHg 57%
    14:00 +17°C° 1.9 mm 3 mps 676 mmHg 63%
    15:00 +16°C° 1.9 mm 3 mps 675 mmHg 68%
    16:00 +14°C° 1.9 mm 3 mps 675 mmHg 74%
    17:00 +14°C° 0.5 mm 3 mps 675 mmHg 74%
    18:00 +14°C° 0.5 mm 4 mps 676 mmHg 74%
    19:00 +14°C° 0.5 mm 4 mps 676 mmHg 73%
    20:00 +14°C° 0.6 mm 4 mps 676 mmHg 74%
    21:00 +13°C° 0.6 mm 5 mps 676 mmHg 75%
    22:00 +13°C° 0.6 mm 5 mps 676 mmHg 76%
    23:00 +13°C° 0.1 mm 5 mps 676 mmHg 76%

    26 February, Monday

    Time Temperature Precipitation Wind Pressure Humidity
    00:00 +13°C° 0.1 mm 5 mps 675 mmHg 75%
    01:00 +13°C° 0.1 mm 5 mps 675 mmHg 75%
    02:00 +13°C° 0 mm 5 mps 675 mmHg 75%
    03:00 +13°C° 0 mm 4 mps 674 mmHg 74%
    04:00 +13°C° 0 mm 4 mps 674 mmHg 74%
    05:00 +13°C° 0 mm 4 mps 674 mmHg 72%
    06:00 +13°C° 0 mm 4 mps 675 mmHg 71%
    07:00 +14°C° 0 mm 4 mps 675 mmHg 69%
    08:00 +15°C° 0 mm 4 mps 675 mmHg 65%
    09:00 +17°C° 0 mm 4 mps 675 mmHg 60%
    10:00 +18°C° 0 mm 4 mps 676 mmHg 55%
    11:00 +19°C° 0.2 mm 5 mps 675 mmHg 52%
    12:00 +19°C° 0.2 mm 5 mps 675 mmHg 49%
    13:00 +20°C° 0.2 mm 5 mps 675 mmHg 46%
    14:00 +19°C° 0.5 mm 5 mps 674 mmHg 49%
    15:00 +19°C° 0.5 mm 5 mps 674 mmHg 53%
    16:00 +17°C° 0.5 mm 5 mps 673 mmHg 56%
    17:00 +16°C° 2.4 mm 5 mps 673 mmHg 64%
    18:00 +14°C° 2.4 mm 5 mps 674 mmHg 73%
    19:00 +13°C° 2.4 mm 4 mps 674 mmHg 81%
    20:00 +13°C° 0.8 mm 4 mps 674 mmHg 81%
    21:00 +13°C° 0.8 mm 3 mps 675 mmHg 80%
    22:00 +13°C° 0.8 mm 3 mps 675 mmHg 80%
    23:00 +13°C° 0.6 mm 3 mps 675 mmHg 81%

    27 February, Tuesday

    Time Temperature Precipitation Wind Pressure Humidity
    00:00 +13°C° 0.6 mm 3 mps 675 mmHg 83%
    01:00 +12°C° 0.6 mm 3 mps 674 mmHg 84%
    02:00 +12°C° 0.2 mm 3 mps 674 mmHg 84%
    03:00 +12°C° 0.2 mm 3 mps 674 mmHg 83%
    04:00 +12°C° 0.2 mm 3 mps 674 mmHg 83%
    05:00 +12°C° 0.1 mm 3 mps 675 mmHg 81%
    06:00 +13°C° 0.1 mm 3 mps 675 mmHg 79%
    07:00 +13°C° 0.1 mm 3 mps 675 mmHg 77%
    08:00 +14°C° 0.1 mm 3 mps 676 mmHg 69%
    09:00 +17°C° 0.1 mm 3 mps 676 mmHg 62%
    10:00 +18°C° 0.1 mm 3 mps 677 mmHg 54%
    11:00 +19°C° 0 mm 3 mps 676 mmHg 50%
    12:00 +20°C° 0 mm 3 mps 675 mmHg 45%
    13:00 +21°C° 0 mm 3 mps 675 mmHg 41%
    14:00 +21°C° 0 mm 3 mps 675 mmHg 39%
    15:00 +21°C° 0 mm 3 mps 674 mmHg 37%
    16:00 +21°C° 0 mm 2 mps 674 mmHg 36%
    17:00 +21°C° 0 mm 2 mps 674 mmHg 39%
    18:00 +20°C° 0 mm 2 mps 674 mmHg 42%
    19:00 +19°C° 0 mm 2 mps 674 mmHg 46%
    20:00 +19°C° 0 mm 2 mps 674 mmHg 46%
    21:00 +18°C° 0 mm 2 mps 674 mmHg 46%
    22:00 +18°C° 0 mm 3 mps 674 mmHg 46%
    23:00 +17°C° 0 mm 3 mps 674 mmHg 45%

    28 February, Wednesday

    Time Temperature Precipitation Wind Pressure Humidity
    00:00 +17°C° 0 mm 2 mps 674 mmHg 45%
    01:00 +17°C° 0 mm 2 mps 673 mmHg 45%
    02:00 +16°C° 0 mm 2 mps 673 mmHg 45%
    03:00 +16°C° 0 mm 2 mps 673 mmHg 46%
    04:00 +15°C° 0 mm 2 mps 673 mmHg 47%
    05:00 +15°C° 0 mm 2 mps 673 mmHg 47%
    06:00 +16°C° 0 mm 3 mps 674 mmHg 47%
    07:00 +16°C° 0 mm 3 mps 674 mmHg 48%
    08:00 +17°C° 0 mm 3 mps 674 mmHg 43%
    09:00 +19°C° 0 mm 3 mps 675 mmHg 38%
    10:00 +21°C° 0 mm 3 mps 675 mmHg 33%
    11:00 +22°C° 0 mm 3 mps 675 mmHg 32%
    12:00 +22°C° 0 mm 3 mps 674 mmHg 31%
    13:00 +24°C° 0 mm 3 mps 674 mmHg 30%
    14:00 +24°C° 0 mm 3 mps 674 mmHg 29%
    15:00 +24°C° 0 mm 3 mps 673 mmHg 29%
    16:00 +25°C° 0 mm 3 mps 673 mmHg 28%
    17:00 +24°C° 0 mm 2 mps 673 mmHg 31%
    18:00 +21°C° 0 mm 2 mps 673 mmHg 35%
    19:00 +21°C° 0 mm 1 mps 673 mmHg 39%
    20:00 +21°C° 0.2 mm 1 mps 673 mmHg 41%
    21:00 +19°C° 0.2 mm 2 mps 673 mmHg 42%
    22:00 +19°C° 0.2 mm 2 mps 673 mmHg 44%
    23:00 +18°C° 0.1 mm 2 mps 673 mmHg 46%
    Show more